Flag for Germany Weather past 2 weeks in Warburg, North Rhine-Westphalia, Germany

Now
54 °F

Mostly cloudy.


Feels Like: 50 °F
Forecast: 41 / 53 °F
Wind: 12 mph from Southwest

Location: Kassel / Calden

Current Time: Dec 18, 2014 at 7:30:38 PM

Latest Report: Dec 18, 2014 at 6:50 PM


Visibility: N/A

Pressure: 29.80 "Hg

Humidity: 82%

Dew point: 48 °F

Location of WarburgLocation

Historic Weather in Warburg — Graph

°F

Warburg temperature yesterday

Maximum temperature yesterday: 43 °F (at 8:20 PM)
Minimum temperature yesterday: 36 °F (at 6:50 AM)
Average temperature yesterday: 38 °F

Past Weeks' High & Low Weather Summary

 TemperatureHumidityPressure
High54 °F (Dec 18, 5:50 PM)100% (Dec 4, 7:20 PM)30.36 "Hg (Dec 4, 7:20 PM)
Low28 °F (Dec 3, 8:50 PM)65% (Dec 14, 7:50 AM)29.42 "Hg (Dec 12, 1:50 PM)
Average38 °F87%29.93 "Hg
* Reported Dec 3 6:20 PM — Dec 18 6:20 PM, Warburg, Weather by CustomWeather, © 2014

Note: Actual official high and low records may vary slightly from our data, if they occured in-between our weather recording intervals... More about our weather records

Advertising

Warburg weather history for previous 24 hours

 ConditionsComfort  
Time TempWeatherWind HumidityBarometerVisibility
6:20 PM
Dec 18
54 °FMostly cloudy.13 mph82%29.80 "HgN/A
5:50 PM54 °FMostly cloudy.12 mph82%29.80 "HgN/A
5:20 PM52 °FMostly cloudy.10 mph88%29.80 "HgN/A
4:50 PM52 °FMostly cloudy.9 mph88%29.80 "HgN/A
4:20 PM52 °FMostly cloudy.10 mph88%29.80 "HgN/A
3:50 PM52 °FMostly cloudy.8 mph88%29.80 "HgN/A
3:20 PM52 °FMostly cloudy.9 mph88%29.80 "HgN/A
2:50 PM52 °FMostly cloudy.12 mph88%29.80 "HgN/A
2:20 PM52 °FMostly cloudy.12 mph88%29.80 "HgN/A
1:50 PM52 °FMore clouds than sun.12 mph88%29.80 "HgN/A
1:20 PM52 °FBroken clouds.12 mph82%29.80 "HgN/A
12:50 PM50 °FPartly sunny.13 mph88%29.80 "HgN/A
12:20 PM50 °FPartly sunny.13 mph88%29.83 "HgN/A
11:50 AM50 °FBroken clouds.13 mph88%29.83 "HgN/A
11:20 AM50 °FBroken clouds.13 mph88%29.83 "HgN/A
10:50 AM48 °FMore clouds than sun.13 mph87%29.83 "HgN/A
10:20 AM48 °FPartly sunny.10 mph87%29.83 "HgN/A
9:50 AM46 °FMostly cloudy.10 mph93%29.83 "HgN/A
9:20 AM46 °FMore clouds than sun.6 mph93%29.83 "HgN/A
8:50 AM46 °FMostly cloudy.9 mph93%29.83 "HgN/A
8:20 AM46 °FLow clouds.10 mph93%29.83 "HgN/A
7:50 AM46 °FLow clouds.9 mph93%29.83 "HgN/A
7:20 AM46 °FMostly cloudy.8 mph93%29.83 "HgN/A
6:50 AM46 °FOvercast.9 mph93%29.83 "HgN/A
6:20 AM46 °FMostly cloudy.8 mph93%29.83 "HgN/A
5:50 AM48 °FMostly cloudy.9 mph87%29.80 "Hg6 mi
9:50 PM
Dec 17
43 °FOvercast.6 mph93%29.74 "HgN/A
9:20 PM43 °FOvercast.7 mph93%29.71 "Hg5 mi
8:50 PM43 °FLight rain. Overcast.6 mph93%29.71 "Hg2 mi
8:20 PM43 °FDrizzle. Overcast.6 mph93%29.68 "Hg3 mi
7:50 PM41 °FDrizzle. Overcast.5 mph93%29.68 "Hg3 mi
7:20 PM41 °FMostly cloudy.9 mph93%29.65 "Hg6 mi
Weather by CustomWeather, © 2014

See weather overviewHow to use our weather pages